Home > Weather > Atlanta > Past weeks

Flag for U.S.A. Weather for the Past 2 Weeks in Atlanta, Georgia, U.S.A.

Now
40 °F

Sunny.


Feels Like: 33 °F
Forecast: 26 / 46 °F
Wind: 10 mph from Southeast

Location: Fulton County Airport-Brown Field

Current Time: Feb 14, 2016 at 12:38:08 PM

Latest Report: Feb 14, 2016 at 11:53 AM


Visibility: 10 mi

Pressure: 30.34 "Hg

Humidity: 28%

Dew point: 9 °F

Location of AtlantaLocation

Historic Weather in Atlanta — Graph

°F

Atlanta Temperature Yesterday

Maximum temperature yesterday: 41 °F (at 2:53 PM)
Minimum temperature yesterday: 30 °F (at 6:53 AM)
Average temperature yesterday: 35 °F

High & Low Weather Summary for the Past Weeks

 TemperatureHumidityPressure
High76 °F (Feb 2, 3:53 PM)100% (Feb 2, 8:53 AM)30.43 "Hg (Feb 2, 8:53 AM)
Low23 °F (Feb 10, 6:53 AM)19% (Feb 13, 4:53 PM)29.74 "Hg (Feb 8, 1:53 PM)
Average45 °F56%30.10 "Hg
* Reported Jan 30 10:53 AM — Feb 14 10:53 AM, Atlanta, Weather by CustomWeather, © 2016

Note: Actual official high and low records may vary slightly from our data, if they occured in-between our weather recording intervals... More about our weather records

Advertising

Atlanta Weather History for the Previous 24 Hours

 ConditionsComfort  
Time TempWeatherWind HumidityBarometerVisibility
10:53 AM
Sun, Feb 14
36 °FSunny.8 mph30%30.38 "Hg10 mi
9:53 AM33 °FSunny.9 mph32%30.40 "Hg10 mi
8:53 AM31 °FSunny.10 mph33%30.40 "Hg10 mi
7:53 AM30 °FSunny.8 mph36%30.40 "Hg10 mi
6:53 AM30 °FClear.7 mph36%30.37 "Hg10 mi
5:53 AM28 °FClear.No wind47%30.36 "Hg10 mi
4:53 AM27 °FClear.5 mph49%30.34 "Hg10 mi
3:53 AM28 °FClear.3 mph43%30.35 "Hg10 mi
2:53 AM28 °FClear.No wind47%30.37 "Hg10 mi
1:53 AM29 °FClear.No wind43%30.37 "Hg10 mi
12:53 AM30 °FClear.3 mph38%30.35 "Hg10 mi
11:53 PM
Sat, Feb 13
30 °FClear.3 mph36%30.36 "Hg10 mi
10:53 PM32 °FClear.No wind30%30.38 "Hg10 mi
9:53 PM32 °FClear.6 mph33%30.40 "Hg10 mi
8:53 PM33 °FClear.6 mph30%30.42 "Hg10 mi
7:53 PM34 °FClear.5 mph28%30.41 "Hg10 mi
6:53 PM36 °FClear.6 mph26%30.39 "Hg10 mi
5:53 PM39 °FSunny.12 mph22%30.38 "Hg10 mi
4:53 PM41 °FSunny.16 mph19%30.36 "Hg10 mi
3:53 PM41 °FSunny.13 mph21%30.35 "Hg10 mi
2:53 PM41 °FSunny.16 mph21%30.36 "Hg10 mi
1:53 PM39 °FSunny.14 mph23%30.37 "Hg10 mi
12:53 PM38 °FSunny.16 mph25%30.40 "Hg10 mi
Weather by CustomWeather, © 2016

See weather overviewHow to use our weather pages